Home   Weather   Lustenau   Past weeks

Flag for Austria Past Weather in Lustenau, Vorarlberg, Austria — Yesterday and Last 2 Weeks

Now
21 °F

Ice fog.


Feels Like: 13 °F
Forecast: 20 / 38 °F
Wind: 7 mph from East

Location: Saint Gallen-Altenrhein

Current Time: Jan 22, 2017 at 7:40:31 pm

Latest Report: Jan 22, 2017 at 6:50 pm


Visibility: 2 mi

Pressure: 30.21 "Hg

Humidity: 100%

Dew Point: 21 °F

Location of LustenauLocation

Past Weather in Lustenau — Graph

°F

Lustenau Temperature Yesterday

Maximum temperature yesterday: 23 °F (at 4:20 pm)
Minimum temperature yesterday: 18 °F (at 3:20 am)
Average temperature yesterday: 20 °F

High & Low Weather Summary for the Past Weeks

 TemperatureHumidityPressure
High45 °F (Jan 11, 10:50 pm)100% (Jan 8, 1:20 am)30.48 "Hg (Jan 8, 1:20 am)
Low7 °F (Jan 19, 7:50 am)56% (Jan 11, 3:20 pm)29.45 "Hg (Jan 13, 12:50 am)
Average27 °F87%30.17 "Hg
* Reported Jan 7 6:20 pm — Jan 22 6:20 pm, Lustenau, Weather by CustomWeather, © 2017

Note: Actual official high and low records may vary slightly from our data, if they occured in-between our weather recording intervals... More about our weather records

Advertising

Lustenau Weather History for the Previous 24 Hours

Scroll right to see more
 ConditionsComfort  
Time TempWeatherWind HumidityBarometerVisibility
6:20 pm
Sun, Jan 22
23 °FIce fog.2 mph100%30.21 "Hg2 mi
5:50 pm23 °FIce fog.2 mph100%30.21 "Hg2 mi
5:20 pm23 °FIce fog.3 mph100%30.21 "Hg2 mi
4:50 pm23 °FIce fog.2 mph100%30.21 "Hg1 mi
4:20 pm23 °FIce fog.2 mph93%30.21 "Hg1 mi
3:50 pm23 °FIce fog.1 mph93%30.21 "Hg1 mi
3:20 pm21 °FIce fog.1 mph100%30.21 "Hg1 mi
2:50 pm21 °FIce fog.1 mph100%30.21 "Hg2 mi
2:20 pm21 °FIce fog.3 mph93%30.21 "Hg2 mi
1:50 pm19 °FIce fog.3 mph100%30.24 "Hg2 mi
1:20 pm19 °FIce fog.3 mph100%30.24 "Hg2 mi
12:50 pm19 °FIce fog.2 mph100%30.24 "Hg1 mi
12:20 pm19 °FMostly cloudy.3 mph100%30.24 "Hg1 mi
11:50 am19 °FIce fog.5 mph93%30.27 "Hg1 mi
11:20 am18 °FFog.5 mph100%30.27 "Hg1 mi
10:50 am18 °FFog.6 mph100%30.27 "Hg0 mi
10:20 am18 °FFog.5 mph100%30.27 "Hg0 mi
9:50 am18 °FFog.6 mph93%30.30 "Hg0 mi
9:20 am18 °FHeavy snow. Ice fog.6 mph100%30.27 "Hg0 mi
8:50 am18 °FLight freezing rain. Ice fog.6 mph93%30.27 "Hg0 mi
8:20 am18 °FSnow. Ice fog.7 mph100%30.27 "Hg1 mi
7:50 am18 °FIce fog.7 mph100%30.27 "Hg1 mi
7:20 am18 °FSnow. Ice fog.7 mph100%30.27 "Hg1 mi
6:50 am18 °FHeavy snow. Ice fog.6 mph100%30.27 "Hg0 mi
6:20 am19 °FHeavy snow. Ice fog.6 mph93%30.27 "Hg0 mi
5:50 am19 °FIce fog.5 mph100%30.27 "Hg0 mi
5:20 am19 °FIce fog.5 mph100%30.30 "Hg0 mi
4:50 am19 °FIce fog.5 mph100%30.30 "Hg0 mi
4:20 am19 °FIce fog.5 mph100%30.30 "Hg0 mi
3:50 am19 °FIce fog.6 mph100%30.30 "Hg0 mi
3:20 am19 °FIce fog.5 mph100%30.30 "Hg0 mi
2:50 am19 °FIce fog.5 mph100%30.30 "Hg0 mi
2:20 am19 °FIce fog.5 mph100%30.33 "Hg0 mi
1:50 am19 °FIce fog.5 mph100%30.33 "Hg0 mi
12:50 am19 °FIce fog.5 mph100%30.33 "Hg0 mi
12:20 am19 °FIce fog.5 mph100%30.33 "Hg1 mi
11:50 pm
Sat, Jan 21
19 °FIce fog.5 mph100%30.33 "Hg1 mi
11:20 pm21 °FIce fog.6 mph93%30.33 "Hg1 mi
10:50 pm21 °FIce fog.5 mph100%30.33 "Hg1 mi
10:20 pm21 °FLow clouds.5 mph100%30.33 "Hg1 mi
9:50 pm21 °FLow clouds.6 mph93%30.33 "Hg1 mi
9:20 pm21 °FIce fog.6 mph100%30.33 "Hg1 mi
8:50 pm21 °FIce fog.6 mph100%30.33 "Hg1 mi
8:20 pm21 °FIce fog.6 mph100%30.33 "Hg1 mi
7:50 pm21 °FIce fog.6 mph100%30.36 "Hg2 mi
7:20 pm23 °FIce fog.5 mph93%30.33 "Hg2 mi
Weather by CustomWeather, © 2017

See weather overviewHow to use our weather pages